Weather History for Abilene, TX

Change the Weather History Date:

Thursday, December 1, 2011

  Actual Average Record
Temperature  
Mean Temperature 52 °F 48 °F  
Max Temperature 61 °F 60 °F 82 °F (1950)
Min Temperature 43 °F 37 °F 17 °F (1896)
Degree Days  
Heating Degree Days 13 17  
Month to date heating degree days 13 17  
Since 1 July heating degree days 400 450  
Cooling Degree Days 0 0  
Month to date cooling degree days 0 0  
Year to date cooling degree days 3517 2408  
Growing Degree Days 2 (Base 50)    
Moisture  
Dew Point 38 °F    
Average Humidity 59    
Maximum Humidity 72    
Minimum Humidity 46    
Precipitation  
Precipitation T in 0.04 in 0.73 in (2009)
Month to date precipitation T 0.04  
Year to date precipitation 14.90 23.63  
Sea Level Pressure  
Sea Level Pressure 30.11 in    
Wind  
Wind Speed 13 mph (NNE)    
Max Wind Speed 22 mph    
Max Gust Speed 28 mph    
Visibility 10 miles    
Events Rain    
T = Trace of Precipitation, MM = Missing Value Source: NWS Daily Summary

Daily Weather History Graph

Daily Weather History Graph

Search for Another Location

Airport:

Trip Planner

Search our weather history database for the weather conditions in past years. The results will help you decide how hot, cold, wet, or windy it might be!

Date:

Astronomy

Dec. 01, 2011 Rise Set
Actual Time 7:22 AM CST 5:33 PM CST
Civil Twilight 6:55 AM CST 5:59 PM CST
Nautical Twilight 6:25 AM CST 6:30 PM CST
Astronomical Twilight 5:55 AM CST 6:59 PM CST
Moon 12:22 PM CST (12/1) No Moon Set
Length of Visible Light 11h 04m
Length of Day
10h 11m
Waxing Crescent, 43% of the Moon is Illuminated
Dec 1
Waxing Crescent
Dec 2
First Quarter
Dec 10
Full
Dec 17
Last Quarter
Dec 24
New

Hourly Weather History & Observations

Time (CST) Temp. Windchill Dew Point Humidity Pressure Visibility Wind Dir Wind Speed Gust Speed Precip Events Conditions
12:52 AM 52.0 °F - 33.1 °F 49% 29.96 in 10.0 mi South 15.0 mph - N/A   Clear
1:52 AM 50.0 °F - 33.1 °F 52% 29.95 in 10.0 mi South 16.1 mph 23.0 mph N/A   Clear
2:52 AM 50.0 °F - 32.0 °F 50% 29.93 in 10.0 mi South 17.3 mph 24.2 mph N/A   Clear
3:52 AM 48.9 °F - 30.9 °F 50% 29.94 in 10.0 mi South 11.5 mph - N/A   Clear
4:52 AM 46.0 °F 39.0 °F 30.9 °F 56% 29.94 in 10.0 mi SSE 17.3 mph - N/A   Clear
5:52 AM 45.0 °F 38.5 °F 30.9 °F 58% 29.97 in 10.0 mi SSE 13.8 mph - N/A   Clear
6:52 AM 46.9 °F - 30.9 °F 54% 29.99 in 10.0 mi South 16.1 mph - N/A   Clear
7:52 AM 48.0 °F - 30.9 °F 52% 29.99 in 10.0 mi South 18.4 mph - N/A   Clear
8:52 AM 52.0 °F - 34.0 °F 50% 30.01 in 10.0 mi South 17.3 mph 23.0 mph N/A   Clear
9:52 AM 54.0 °F - 41.0 °F 62% 30.04 in 10.0 mi South 18.4 mph 24.2 mph N/A   Mostly Cloudy
10:52 AM 55.9 °F - 45.0 °F 67% 30.09 in 10.0 mi SW 4.6 mph - N/A   Overcast
11:52 AM 57.9 °F - 46.0 °F 65% 30.08 in 10.0 mi SW 6.9 mph - N/A   Overcast
12:52 PM 57.9 °F - 48.0 °F 70% 30.08 in 10.0 mi WSW 4.6 mph - N/A   Overcast
1:42 PM 60.8 °F - 48.2 °F 63% 30.09 in 10.0 mi WNW 4.6 mph - N/A   Overcast
1:52 PM 60.1 °F - 48.0 °F 64% 30.07 in 10.0 mi NNW 6.9 mph - N/A   Overcast
2:52 PM 60.1 °F - 48.0 °F 64% 30.08 in 10.0 mi NNE 3.5 mph - N/A   Overcast
3:52 PM 61.0 °F - 48.0 °F 62% 30.10 in 10.0 mi NE 5.8 mph - N/A   Overcast
4:52 PM 59.0 °F - 44.1 °F 58% 30.12 in 10.0 mi NNE 9.2 mph - N/A   Overcast
5:52 PM 57.9 °F - 44.1 °F 60% 30.16 in 10.0 mi North 10.4 mph - N/A   Overcast
6:52 PM 57.0 °F - 39.0 °F 51% 30.20 in 10.0 mi North 15.0 mph 19.6 mph N/A   Overcast
7:52 PM 53.1 °F - 34.0 °F 48% 30.24 in 10.0 mi North 18.4 mph 27.6 mph N/A   Overcast
8:02 PM 51.8 °F - 33.8 °F 50% 30.26 in 10.0 mi North 16.1 mph 24.2 mph N/A   Overcast
8:52 PM 50.0 °F - 33.1 °F 52% 30.27 in 10.0 mi North 19.6 mph 25.3 mph N/A   Overcast
9:52 PM 48.0 °F - 34.0 °F 58% 30.30 in 10.0 mi North 17.3 mph - N/A   Overcast
10:52 PM 46.0 °F 38.8 °F 33.1 °F 61% 30.33 in 10.0 mi North 18.4 mph 25.3 mph 0.00 in Rain Light Rain
11:24 PM 44.6 °F 37.2 °F 32.0 °F 61% 30.36 in 10.0 mi North 17.3 mph 25.3 mph 0.00 in   Overcast
11:52 PM 44.1 °F 36.8 °F 32.0 °F 63% 30.36 in 10.0 mi North 16.1 mph - 0.00 in Rain Light Rain